Kaldármelar Airport

Jump to: basic info | weather | comments

Related pages: nearby airports | nearby navaids | notams | map

Basic information (top)

Codes: BIKA
Location: lon 64.778900, lat -22.256901, elev 160 ft / 49 m msl
Status: small_airport

Weather (top)

Current conditions for Reykjavik Airport 40nm (74km) SSE (rec'd 2014/10/26 07:00Z):

BIRK 260700Z 21003KT 150V240 CAVOK M00/M04 Q0980 88CLRD

Airport forecast for Reykjavik Airport 40nm (74km) SSE (rec'd 2014/10/26 03:39Z):

TAF BIRK 260127Z 2603/2703 12005KT 9999 FEW050 TX02/2615Z TNM03/2606Z 
      BECMG 2612/2614 36010KT

Latest comments (top)

No comments yet for Kaldármelar Airport

More... (top)

See also NOTAMs and nearby airports and navaids, or visit the Kaldármelar Airport page at the main OurAirports website..